Find OneWeb SL0538

NORAD ID: 56047 Int'l Des: 2023-043 Owner: ONEWEBN Country: UK Constellation: oneweb operational
LEOCIRCULARPOLARONEWEB_TYPE

リアルタイム位置

3D地球を読み込み中...

OneWeb SL0538について

説明を読み込み中...

次回通過

Passes for default location (London). Set your location on the main map for personalized predictions.

高度履歴

Loading altitude history...

軌道要素

1 56047U 23043B 26127.22591053 .00000101 00000-0 23142-3 0 9996
2 56047 87.9097 236.9069 0001677 102.2128 257.9191 13.16595216153581
Epoch: May 7, 2026 • Age: 13 hours

現在のステータス

高度 1203.3 km
速度 7.26 km/s
衛星直下点 42.18°N, 97.04°E
打ち上げ日 Mar 26, 2023
運用期間 3.1 years
タイプ internet

技術仕様

分類 Payload
質量 148.00 kg
乾燥質量 140.00 kg
総質量 148.00 kg
長さ 1.30 m
直径 1.00 m
スパン 5.00 m
形状 Trapezoid+2 pan
製造者 ONEWUS
バスタイプ ARROW
フェーズステータス In Orbit
所有者/国 ONEWEBN/UK

Most Searched